Change the Weather History Date:

Wednesday, March 12, 2014

  Actual Average Record
Temperature  
Mean Temperature 18 °F -  
Max Temperature 26 °F 35 °F 56 °F (1990)
Min Temperature 6 °F 19 °F -8 °F (1906)
Degree Days  
Heating Degree Days 47    
Moisture  
Dew Point 1 °F    
Average Humidity 56    
Maximum Humidity 74    
Minimum Humidity 38    
Precipitation  
Precipitation 0.00 in - - ()
Sea Level Pressure  
Sea Level Pressure 30.01 in    
Wind  
Wind Speed 18 mph (NNE)    
Max Wind Speed 28 mph    
Max Gust Speed 36 mph    
Visibility 10 miles    
Events      
Averages and records for this station are not official NWS values.
T = Trace of Precipitation, MM = Missing Value Source: NWS Daily Summary

Daily Weather History Graph

Daily Weather History Graph

Search for Another Location

Airport or City:

Trip Planner

Search our weather history database for the weather conditions in past years. The results will help you decide how hot, cold, wet, or windy it might be!

Date:

Astronomy

Mar. 12, 2014 Rise Set
Actual Time 7:07 AM CDT 6:51 PM CDT
Civil Twilight 6:38 AM CDT 7:21 PM CDT
Nautical Twilight 6:04 AM CDT 7:55 PM CDT
Astronomical Twilight 5:30 AM CDT 8:29 PM CDT
Moon 3:15 PM CDT (3/12) 4:46 AM CDT (3/12)
Length of Visible Light 12h 42m
Length of Day
11h 44m
Waxing Gibbous, 85% of the Moon is Illuminated
Mar 12
Waxing Gibbous
Mar 16
Full
Mar 23
Last Quarter
Mar 30
New
Apr 7
First Quarter

Hourly Weather History & Observations

Time (CDT) Temp. Windchill Dew Point Humidity Pressure Visibility Wind Dir Wind Speed Gust Speed Precip Events Conditions
12:15 AM 28.4 °F 17.5 °F 17.6 °F 64% 29.87 in 10.0 mi NNE 13.8 mph 18.4 mph N/A   Overcast
12:35 AM 28.4 °F 15.8 °F 15.8 °F 59% 29.87 in 10.0 mi NNE 18.4 mph 21.9 mph N/A   Overcast
12:55 AM 26.6 °F 14.7 °F 15.8 °F 64% 29.88 in 10.0 mi NNE 15.0 mph 27.6 mph N/A   Overcast
1:15 AM 26.6 °F 13.1 °F 15.8 °F 64% 29.88 in 10.0 mi NNE 19.6 mph 23.0 mph N/A   Mostly Cloudy
1:35 AM 26.6 °F 14.7 °F 15.8 °F 64% 29.88 in 10.0 mi NNE 15.0 mph 19.6 mph N/A   Overcast
1:55 AM 24.8 °F 11.1 °F 15.8 °F 69% 29.89 in 10.0 mi NNE 18.4 mph 23.0 mph N/A   Overcast
2:15 AM 24.8 °F 11.5 °F 14.0 °F 64% 29.90 in 10.0 mi NNE 17.3 mph 20.7 mph N/A   Mostly Cloudy
2:35 AM 24.8 °F 12.4 °F 14.0 °F 64% 29.90 in 10.0 mi NNE 15.0 mph 25.3 mph N/A   Clear
2:55 AM 23.0 °F 7.2 °F 14.0 °F 68% 29.89 in 10.0 mi NNE 23.0 mph 26.5 mph N/A   Clear
3:15 AM 21.2 °F 4.5 °F 14.0 °F 74% 29.89 in 10.0 mi North 24.2 mph 29.9 mph N/A   Clear
3:35 AM 21.2 °F 4.9 °F 14.0 °F 74% 29.88 in 10.0 mi NNE 23.0 mph 29.9 mph N/A   Partly Cloudy
3:55 AM 21.2 °F 6.0 °F 14.0 °F 74% 29.89 in 10.0 mi North 19.6 mph 28.8 mph N/A   Mostly Cloudy
4:15 AM 21.2 °F 5.6 °F 12.2 °F 68% 29.90 in 10.0 mi NNE 20.7 mph 24.2 mph N/A   Overcast
4:35 AM 19.4 °F 3.2 °F 10.4 °F 68% 29.90 in 10.0 mi North 20.7 mph 28.8 mph N/A   Overcast
4:55 AM 17.6 °F 0.1 °F 8.6 °F 68% 29.91 in 10.0 mi NNE 23.0 mph 29.9 mph N/A   Overcast
5:15 AM 17.6 °F -0.3 °F 8.6 °F 68% 29.92 in 10.0 mi NNE 24.2 mph 29.9 mph N/A   Overcast
5:35 AM 15.8 °F -1.1 °F 6.8 °F 68% 29.94 in 10.0 mi NNE 19.6 mph 27.6 mph N/A   Overcast
5:55 AM 14.0 °F -4.3 °F 3.2 °F 62% 29.95 in 10.0 mi NNE 21.9 mph 27.6 mph N/A   Mostly Cloudy
6:15 AM 12.2 °F -6.3 °F 3.2 °F 67% 29.96 in 10.0 mi NNE 20.7 mph 29.9 mph N/A   Overcast
6:35 AM 12.2 °F -7.1 °F 1.4 °F 62% 29.97 in 10.0 mi North 23.0 mph 31.1 mph N/A   Overcast
6:55 AM 10.4 °F -10.7 °F -2.2 °F 57% 29.98 in 10.0 mi North 26.5 mph 35.7 mph N/A   Overcast
7:15 AM 10.4 °F -10.7 °F -0.4 °F 62% 29.98 in 10.0 mi North 26.5 mph 32.2 mph N/A   Overcast
7:35 AM 10.4 °F -9.9 °F -2.2 °F 57% 29.98 in 10.0 mi North 24.2 mph 35.7 mph N/A   Overcast
7:55 AM 8.6 °F -11.9 °F -4.0 °F 57% 29.98 in 10.0 mi North 23.0 mph 31.1 mph N/A   Overcast
8:15 AM 8.6 °F -11.4 °F -4.0 °F 57% 29.99 in 10.0 mi North 21.9 mph 34.5 mph N/A   Overcast
8:35 AM 8.6 °F -12.3 °F -2.2 °F 62% 30.00 in 10.0 mi North 24.2 mph 32.2 mph N/A   Mostly Cloudy
8:55 AM 8.6 °F -12.3 °F -4.0 °F 57% 30.00 in 10.0 mi North 24.2 mph 29.9 mph N/A   Partly Cloudy
9:15 AM 8.6 °F -13.4 °F -2.2 °F 62% 30.00 in 10.0 mi North 27.6 mph 31.1 mph N/A   Partly Cloudy
9:35 AM 8.6 °F -12.7 °F -4.0 °F 57% 30.00 in 10.0 mi North 25.3 mph 31.1 mph N/A   Scattered Clouds
9:55 AM 8.6 °F -11.4 °F -2.2 °F 62% 30.01 in 10.0 mi North 21.9 mph 32.2 mph N/A   Mostly Cloudy
10:15 AM 8.6 °F -11.9 °F -0.4 °F 67% 30.01 in 10.0 mi North 23.0 mph 31.1 mph N/A   Partly Cloudy
10:35 AM 8.6 °F -11.9 °F -2.2 °F 62% 30.01 in 10.0 mi North 23.0 mph 31.1 mph N/A   Clear
10:55 AM 8.6 °F -13.1 °F -2.2 °F 62% 30.02 in 10.0 mi North 26.5 mph 35.7 mph N/A   Clear
11:15 AM 10.4 °F -9.9 °F -5.8 °F 48% 30.02 in 10.0 mi NNE 24.2 mph 32.2 mph N/A   Clear
11:35 AM 10.4 °F -9.9 °F -4.0 °F 52% 30.02 in 10.0 mi North 24.2 mph 33.4 mph N/A   Clear
11:55 AM 10.4 °F -10.7 °F -2.2 °F 57% 30.02 in 10.0 mi North 26.5 mph 33.4 mph N/A   Clear
12:15 PM 10.4 °F -9.9 °F -4.0 °F 52% 30.03 in 10.0 mi North 24.2 mph 33.4 mph N/A   Clear
12:35 PM 12.2 °F -7.9 °F -2.2 °F 53% 30.03 in 10.0 mi North 25.3 mph 31.1 mph N/A   Clear
12:55 PM 12.2 °F -7.5 °F -2.2 °F 53% 30.03 in 10.0 mi North 24.2 mph 28.8 mph N/A   Clear
1:15 PM 12.2 °F -6.7 °F -0.4 °F 57% 30.03 in 10.0 mi North 21.9 mph 28.8 mph N/A   Clear
1:35 PM 12.2 °F -5.3 °F -0.4 °F 57% 30.03 in 10.0 mi North 18.4 mph - N/A   Clear
1:55 PM 12.2 °F -5.3 °F -0.4 °F 57% 30.03 in 10.0 mi North 18.4 mph - N/A   Clear
2:15 PM 12.2 °F -5.8 °F -0.4 °F 57% 30.02 in 10.0 mi North 19.6 mph - N/A   Clear
2:35 PM 14.0 °F -1.4 °F -2.2 °F 49% 30.03 in 10.0 mi North 15.0 mph 21.9 mph N/A   Clear
2:55 PM 15.8 °F 0.3 °F -2.2 °F 45% 30.03 in 10.0 mi North 16.1 mph 21.9 mph N/A   Clear
3:15 PM 15.8 °F 0.9 °F -2.2 °F 45% 30.03 in 10.0 mi North 15.0 mph - N/A   Clear
3:35 PM 15.8 °F 2.1 °F -2.2 °F 45% 30.04 in 10.0 mi North 12.7 mph - N/A   Clear
3:55 PM 15.8 °F 2.7 °F -2.2 °F 45% 30.04 in 10.0 mi NNE 11.5 mph - N/A   Clear
4:15 PM 15.8 °F 0.9 °F -2.2 °F 45% 30.04 in 10.0 mi North 15.0 mph 20.7 mph N/A   Clear
4:35 PM 15.8 °F 0.3 °F -2.2 °F 45% 30.05 in 10.0 mi North 16.1 mph - N/A   Clear
4:55 PM 15.8 °F 1.4 °F -2.2 °F 45% 30.05 in 10.0 mi NNE 13.8 mph 18.4 mph N/A   Clear
5:15 PM 15.8 °F 0.3 °F -5.8 °F 38% 30.06 in 10.0 mi NNE 16.1 mph - N/A   Clear
5:35 PM 15.8 °F 2.7 °F -2.2 °F 45% 30.06 in 10.0 mi NNE 11.5 mph - N/A   Clear
5:55 PM 15.8 °F 3.4 °F -4.0 °F 41% 30.06 in 10.0 mi NE 10.4 mph - N/A   Clear
6:15 PM 15.8 °F 5.1 °F -4.0 °F 41% 30.07 in 10.0 mi NE 8.1 mph - N/A   Clear
6:35 PM 14.0 °F 2.0 °F -5.8 °F 41% 30.08 in 10.0 mi NE 9.2 mph - N/A   Clear
6:55 PM 12.2 °F -1.0 °F -5.8 °F 45% 30.08 in 10.0 mi NE 10.4 mph - N/A   Clear
7:15 PM 12.2 °F 0.7 °F -5.8 °F 45% 30.09 in 10.0 mi NE 8.1 mph - N/A   Clear
7:35 PM 12.2 °F 1.7 °F -5.8 °F 45% 30.09 in 10.0 mi ENE 6.9 mph - N/A   Clear
7:55 PM 10.4 °F 0.8 °F -5.8 °F 48% 30.09 in 10.0 mi ENE 5.8 mph - N/A   Clear
8:15 PM 10.4 °F 0.8 °F -5.8 °F 48% 30.09 in 10.0 mi ENE 5.8 mph - N/A   Clear
8:35 PM 10.4 °F 0.8 °F -5.8 °F 48% 30.09 in 10.0 mi ENE 5.8 mph - N/A   Clear
8:55 PM 10.4 °F 2.2 °F -5.8 °F 48% 30.10 in 10.0 mi ENE 4.6 mph - N/A   Clear
9:15 PM 8.6 °F -1.3 °F -5.8 °F 52% 30.10 in 10.0 mi NE 5.8 mph - N/A   Clear
9:35 PM 8.6 °F -1.3 °F -5.8 °F 52% 30.10 in 10.0 mi NE 5.8 mph - N/A   Clear
9:55 PM 8.6 °F -3.7 °F -5.8 °F 52% 30.10 in 10.0 mi NE 8.1 mph - N/A   Clear
10:15 PM 8.6 °F -3.7 °F -7.6 °F 48% 30.11 in 10.0 mi NE 8.1 mph - N/A   Clear
10:35 PM 8.6 °F -2.6 °F -7.6 °F 48% 30.10 in 10.0 mi NNE 6.9 mph - N/A   Clear
10:55 PM 8.6 °F 2.0 °F -7.6 °F 48% 30.10 in 10.0 mi NW 3.5 mph - N/A   Clear
11:15 PM 8.6 °F -1.3 °F -5.8 °F 52% 30.10 in 10.0 mi North 5.8 mph - N/A   Clear
11:35 PM 8.6 °F -1.3 °F -7.6 °F 48% 30.10 in 10.0 mi NNW 5.8 mph - N/A   Clear
11:55 PM 6.8 °F -2.0 °F -5.8 °F 56% 30.10 in 10.0 mi NNW 4.6 mph - N/A   Clear